Regional Weather Roundup
Issued by NWS New Orleans/Baton Rouge, LA

Home | Current Version | Previous Version | Text Only | Print | Product List | Glossary Off
Versions: 1 2 3 4 5 6 7 8 9 10 11 12 13 14 15 16 17 18 19 20 21 22 23 24 25 26 27 28 29 30 31 32 33 34 35 36 37 38 39 40 41 42 43 44 45 46 47 48 49 50

161
ASUS44 KLIX 310810
RWRLIX
NEW ORLEANS REGIONAL WEATHER ROUNDUP
NATIONAL WEATHER SERVICE NEW ORLEANS LA
200 AM CST SAT JAN 31 2015

NOTE: "FAIR" INDICATES FEW OR NO CLOUDS BELOW 12,000 FEET WITH NO
      SIGNIFICANT WEATHER AND/OR OBSTRUCTIONS TO VISIBILITY.
      SKY/WX - SKY CONDITION AND SIGNIFICANT WEATHER.
      TMP - AIR TEMPERATURE.     DP    - DEWPOINT TEMPERATURE.
      RH  - RELATIVE HUMIDITY.   PRES  - PRESSURE.
      HI  - HEAT INDEX.          WCI   - WIND CHILL INDEX.

*  THESE STATIONS ARE NOT NWS OR FAA STATIONS AND ARE NOT UNDER
   NWS QUALITY CONTROL.

LAZ038-040-048-061>063-065>067-069-310900-
SOUTHEAST LOUISIANA

CITY           SKY/WX    TMP DP  RH WIND       PRES   REMARKS
N.O. AUDUBON     N/A     50  36  57 MISG        N/A
N.O. INTL ARPT PTCLDY    50  34  54 E9        30.31S
N.O. LAKEFRONT CLEAR     51  36  56 E17       30.32S
N.O. DOWNTOWN* NOT AVBL
SLIDELL        CLEAR     40  32  73 NE6       30.32S
BATON ROUGE    CLEAR     39  31  72 NE5       30.32F
BOOTHVILLE     PTCLDY    52  42  69 NE9       30.30F
BELLE CHASSE   CLEAR     40  35  83 NE5       30.30F
BOGALUSA*        N/A     35  32  88 CALM      30.35S
GALLIANO*      PTSUNNY   52  43  72 MISG      30.30F
NEW ROADS*       N/A     41  32  71 NE8       30.32F
GONZALES*        N/A     43  34  70 NE3       30.31F
HAMMOND*       CLEAR     41  32  70 CALM      30.34F
HOUMA*         PTCLDY    44  37  77 NE6       30.29F
PORT FOURCHON* SUNNY     55  43  62 NE10      30.31F

$$

MSZ070-080>082-310900-
SOUTHERN MISSISSIPPI

CITY           SKY/WX    TMP DP  RH WIND       PRES   REMARKS
MCCOMB         CLEAR     41  30  65 VRB3      30.32F
GULFPORT       PTCLDY    41  31  67 N3        30.33S
BILOXI         PTCLDY    41  33  73 NE6       30.33S
PASCAGOULA     PTCLDY    36  32  85 CALM      30.33S

$$

COASTAL OBSERVATIONS
LAKE AND NEARSHORE STATIONS

STATION/POSITION TIME  TEMP    WIND        PRES    WAVE
                       AIR SEA DIR/SP/G            HT/PER
                 (UTC) (F)     (DEG/KT/KT) (MB)    (FT/S)
PASCAGOULA       0800   44      10/  6/  7 1026.4
WAVELAND YACHT   0800   46      50/ 13/ 14 1026.0
GRAND ISLE       0800   56 63   70/ 13/ 19 1025.9
SOUTHWEST PASS   0800   50 46   30/ 11/ 12 1025.4
NEW CANAL        0800   51 55   70/ 17/ 19 1026.5
SHELL BEACH      0800   52 56   50/ 15/ 17 1026.2

OFFSHORE STATIONS

STATION/POSITION TIME  TEMP    WIND        PRES    WAVE
                       AIR SEA DIR/SP/G            HT/PER
                 (UTC) (F)     (DEG/KT/KT) (MB)    (FT/S)
64 S DAUPHIN ISL 0750   59 68   60/ 16/ 19 1025.5    4/ 5

$$




USA.gov is the U.S. government's official web portal to all federal, state and local government web resources and services.